When you browse on this site, cookies collect data to enhance your experience and personalize the content and advertising you see.
Visit our Privacy Policy to learn more. By continuing to use the site, you agree to this use of cookies and data.
  • In Schweiz
  • Länderverzeichnis
  • Für 7 Tage
  • Wassertemperatur
  • Satellitenkarten
  • Wetterkarte
  • Widgets
  • user-avatar
    Anmelden

    Stündliche Wetter Ryanzya

    Heute, 18 Februar, Montag

    Zeit Temperatur Niederschläge Wind Luftdruck Luftfeuchtigkeit
    00:00 -4°C° 0.1 mm 6 m/S 733 mmHg 83%
    01:00 -4°C° 0.1 mm 7 m/S 733 mmHg 82%
    02:00 -4°C° 0.1 mm 7 m/S 733 mmHg 82%
    03:00 -4°C° 0.1 mm 7 m/S 734 mmHg 81%
    04:00 -4°C° 0.1 mm 7 m/S 734 mmHg 81%
    05:00 -6°C° 0.1 mm 8 m/S 735 mmHg 80%
    06:00 -6°C° 0.1 mm 8 m/S 735 mmHg 79%
    07:00 -6°C° 0.1 mm 8 m/S 736 mmHg 78%
    08:00 -7°C° 0.1 mm 8 m/S 737 mmHg 77%
    09:00 -7°C° 0.1 mm 8 m/S 738 mmHg 76%
    10:00 -7°C° 0.1 mm 8 m/S 739 mmHg 74%
    11:00 -7°C° 0.1 mm 8 m/S 740 mmHg 73%
    12:00 -9°C° 0.1 mm 9 m/S 741 mmHg 71%
    13:00 -8°C° 0.1 mm 8 m/S 741 mmHg 71%
    14:00 -8°C° 0.1 mm 8 m/S 742 mmHg 71%
    15:00 -10°C° 0.1 mm 8 m/S 743 mmHg 71%
    16:00 -10°C° 0 mm 8 m/S 744 mmHg 72%
    17:00 -11°C° 0 mm 7 m/S 745 mmHg 72%
    18:00 -11°C° 0 mm 7 m/S 746 mmHg 73%
    19:00 -11°C° 0 mm 6 m/S 747 mmHg 73%
    20:00 -11°C° 0 mm 6 m/S 747 mmHg 74%
    21:00 -11°C° 0 mm 6 m/S 748 mmHg 74%
    22:00 -12°C° 0 mm 5 m/S 749 mmHg 76%
    23:00 -12°C° 0 mm 5 m/S 749 mmHg 78%

    Morgen, 19 Februar, Dienstag

    Zeit Temperatur Niederschläge Wind Luftdruck Luftfeuchtigkeit
    00:00 -13°C° 0 mm 5 m/S 750 mmHg 80%
    01:00 -12°C° 0 mm 4 m/S 751 mmHg 81%
    02:00 -12°C° 0 mm 4 m/S 751 mmHg 83%
    03:00 -14°C° 0 mm 4 m/S 752 mmHg 85%
    04:00 -13°C° 0 mm 3 m/S 752 mmHg 87%
    05:00 -14°C° 0 mm 3 m/S 753 mmHg 88%
    06:00 -14°C° 0 mm 3 m/S 753 mmHg 90%
    07:00 -13°C° 0 mm 2 m/S 753 mmHg 88%
    08:00 -13°C° 0 mm 2 m/S 754 mmHg 87%
    09:00 -12°C° 0 mm 2 m/S 754 mmHg 85%
    10:00 -10°C° 0 mm 2 m/S 754 mmHg 81%
    11:00 -9°C° 0 mm 2 m/S 754 mmHg 76%
    12:00 -9°C° 0 mm 3 m/S 754 mmHg 72%
    13:00 -8°C° 0 mm 3 m/S 753 mmHg 72%
    14:00 -9°C° 0 mm 4 m/S 752 mmHg 73%
    15:00 -10°C° 0 mm 5 m/S 752 mmHg 74%
    16:00 -10°C° 0 mm 5 m/S 751 mmHg 76%
    17:00 -11°C° 0 mm 5 m/S 751 mmHg 78%
    18:00 -11°C° 0 mm 5 m/S 751 mmHg 80%
    19:00 -11°C° 0 mm 5 m/S 750 mmHg 80%
    20:00 -11°C° 0 mm 5 m/S 750 mmHg 80%
    21:00 -11°C° 0 mm 5 m/S 750 mmHg 80%
    22:00 -11°C° 0 mm 5 m/S 749 mmHg 80%
    23:00 -11°C° 0 mm 5 m/S 749 mmHg 81%

    übermorgen, 20 Februar, Mittwoch

    Zeit Temperatur Niederschläge Wind Luftdruck Luftfeuchtigkeit
    00:00 -11°C° 0 mm 5 m/S 749 mmHg 82%
    01:00 -11°C° 0 mm 5 m/S 748 mmHg 81%
    02:00 -11°C° 0 mm 5 m/S 748 mmHg 80%
    03:00 -11°C° 0 mm 5 m/S 748 mmHg 79%
    04:00 -11°C° 0 mm 5 m/S 747 mmHg 79%
    05:00 -11°C° 0 mm 5 m/S 747 mmHg 79%
    06:00 -11°C° 0 mm 5 m/S 746 mmHg 79%
    07:00 -11°C° 0 mm 5 m/S 746 mmHg 79%
    08:00 -10°C° 0 mm 6 m/S 745 mmHg 79%
    09:00 -10°C° 0 mm 6 m/S 745 mmHg 79%
    10:00 -9°C° 0 mm 6 m/S 745 mmHg 79%
    11:00 -8°C° 0 mm 6 m/S 744 mmHg 79%
    12:00 -5°C° 0 mm 6 m/S 744 mmHg 80%
    13:00 -5°C° 0 mm 6 m/S 744 mmHg 81%
    14:00 -5°C° 0 mm 6 m/S 743 mmHg 82%
    15:00 -4°C° 0 mm 6 m/S 743 mmHg 83%
    16:00 -4°C° 0.1 mm 6 m/S 743 mmHg 85%
    17:00 -4°C° 0.1 mm 5 m/S 743 mmHg 86%
    18:00 -5°C° 0.1 mm 5 m/S 742 mmHg 88%
    19:00 -4°C° 0.1 mm 5 m/S 742 mmHg 88%
    20:00 -4°C° 0.1 mm 5 m/S 742 mmHg 89%
    21:00 -4°C° 0.1 mm 5 m/S 742 mmHg 89%
    22:00 -2°C° 0.1 mm 5 m/S 741 mmHg 89%
    23:00 -2°C° 0.1 mm 5 m/S 741 mmHg 90%

    21 Februar, Donnerstag

    Zeit Temperatur Niederschläge Wind Luftdruck Luftfeuchtigkeit
    00:00 -2°C° 0.1 mm 5 m/S 740 mmHg 90%
    01:00 -2°C° 0 mm 5 m/S 740 mmHg 91%
    02:00 -2°C° 0 mm 5 m/S 740 mmHg 91%
    03:00 -2°C° 0 mm 5 m/S 739 mmHg 91%
    04:00 -2°C° 0.1 mm 5 m/S 739 mmHg 91%
    05:00 -2°C° 0.1 mm 5 m/S 738 mmHg 91%
    06:00 -2°C° 0.1 mm 5 m/S 738 mmHg 91%
    07:00 -2°C° 0.3 mm 5 m/S 738 mmHg 91%
    08:00 -2°C° 0.3 mm 5 m/S 737 mmHg 91%
    09:00 -2°C° 0.3 mm 5 m/S 737 mmHg 91%
    10:00 -2°C° 0.6 mm 5 m/S 737 mmHg 91%
    11:00 -2°C° 0.6 mm 5 m/S 737 mmHg 90%
    12:00 -1°C° 0.6 mm 5 m/S 737 mmHg 90%
    13:00 -2°C° 0.1 mm 5 m/S 737 mmHg 87%
    14:00 -2°C° 0.1 mm 5 m/S 737 mmHg 83%
    15:00 -4°C° 0.1 mm 5 m/S 737 mmHg 80%
    16:00 -4°C° 0 mm 4 m/S 737 mmHg 82%
    17:00 -5°C° 0 mm 4 m/S 737 mmHg 85%
    18:00 -6°C° 0 mm 3 m/S 737 mmHg 88%
    19:00 -6°C° 0 mm 3 m/S 737 mmHg 90%
    20:00 -7°C° 0 mm 3 m/S 738 mmHg 92%
    21:00 -7°C° 0 mm 3 m/S 738 mmHg 94%
    22:00 -6°C° 0 mm 2 m/S 738 mmHg 94%
    23:00 -7°C° 0 mm 2 m/S 738 mmHg 95%

    22 Februar, Freitag

    Zeit Temperatur Niederschläge Wind Luftdruck Luftfeuchtigkeit
    00:00 -7°C° 0 mm 2 m/S 738 mmHg 96%
    01:00 -7°C° 0.1 mm 3 m/S 738 mmHg 94%
    02:00 -8°C° 0.1 mm 4 m/S 738 mmHg 92%
    03:00 -8°C° 0.1 mm 5 m/S 738 mmHg 91%
    04:00 -8°C° 0.3 mm 5 m/S 739 mmHg 90%
    05:00 -9°C° 0.3 mm 6 m/S 739 mmHg 90%
    06:00 -9°C° 0.3 mm 6 m/S 739 mmHg 89%
    07:00 -10°C° 0.4 mm 6 m/S 740 mmHg 88%
    08:00 -11°C° 0.4 mm 7 m/S 741 mmHg 87%
    09:00 -11°C° 0.4 mm 7 m/S 741 mmHg 86%
    10:00 -11°C° 0.1 mm 7 m/S 742 mmHg 84%
    11:00 -11°C° 0.1 mm 7 m/S 743 mmHg 83%
    12:00 -11°C° 0.1 mm 7 m/S 743 mmHg 82%
    13:00 -11°C° 0.1 mm 7 m/S 744 mmHg 82%
    14:00 -12°C° 0.1 mm 7 m/S 745 mmHg 83%
    15:00 -12°C° 0.1 mm 7 m/S 746 mmHg 83%
    16:00 -12°C° 0.1 mm 6 m/S 746 mmHg 83%
    17:00 -12°C° 0.1 mm 6 m/S 747 mmHg 83%
    18:00 -14°C° 0.1 mm 6 m/S 748 mmHg 83%
    19:00 -14°C° 0.1 mm 6 m/S 749 mmHg 83%
    20:00 -14°C° 0.1 mm 6 m/S 750 mmHg 83%
    21:00 -14°C° 0.1 mm 6 m/S 751 mmHg 82%
    22:00 -15°C° 0 mm 6 m/S 751 mmHg 82%
    23:00 -14°C° 0 mm 5 m/S 752 mmHg 82%

    23 Februar, Samstag

    Zeit Temperatur Niederschläge Wind Luftdruck Luftfeuchtigkeit
    00:00 -15°C° 0 mm 5 m/S 753 mmHg 82%
    01:00 -17°C° 0 mm 5 m/S 753 mmHg 82%
    02:00 -17°C° 0 mm 5 m/S 754 mmHg 83%
    03:00 -18°C° 0 mm 5 m/S 754 mmHg 83%
    04:00 -18°C° 0 mm 4 m/S 755 mmHg 85%
    05:00 -19°C° 0 mm 4 m/S 755 mmHg 87%
    06:00 -18°C° 0 mm 3 m/S 756 mmHg 88%
    07:00 -18°C° 0 mm 3 m/S 756 mmHg 87%
    08:00 -18°C° 0 mm 3 m/S 756 mmHg 87%
    09:00 -18°C° 0 mm 3 m/S 757 mmHg 86%
    10:00 -16°C° 0 mm 3 m/S 757 mmHg 83%
    11:00 -15°C° 0 mm 3 m/S 757 mmHg 80%
    12:00 -13°C° 0 mm 2 m/S 757 mmHg 78%
    13:00 -12°C° 0 mm 2 m/S 757 mmHg 77%
    14:00 -12°C° 0 mm 2 m/S 757 mmHg 77%
    15:00 -10°C° 0 mm 2 m/S 756 mmHg 76%
    16:00 -12°C° 0 mm 2 m/S 756 mmHg 80%
    17:00 -11°C° 0 mm 1 m/S 756 mmHg 84%
    18:00 -12°C° 0 mm 1 m/S 756 mmHg 88%
    19:00 -12°C° 0 mm 1 m/S 756 mmHg 88%
    20:00 -13°C° 0 mm 1 m/S 756 mmHg 88%
    21:00 -13°C° 0 mm 1 m/S 756 mmHg 87%
    22:00 -13°C° 0 mm 1 m/S 756 mmHg 87%
    23:00 -13°C° 0 mm 1 m/S 756 mmHg 87%
    Mehr zeigen